 day,  time,  air_temp(C),  RH(%),  ground_temp10cm(C),  ground_temp20cm(C),  ground_temp40cm(C),  precipitation(mm/h),  Solar_Radiation(MJ/m2h),  lack, 
 06/08/01, 01:00,  17.1,  99,  21.4,  21.1,  19.3,   0.0,  0.00, 
 06/08/01, 02:00,  17.0,  99,  21.2,  21.1,  19.3,   0.0,  0.00, 
 06/08/01, 03:00,  16.7,  99,  21.1,  21.0,  19.4,   0.0,  0.00, 
 06/08/01, 04:00,  16.7,  99,  20.9,  20.9,  19.3,   0.0,  0.00, 
 06/08/01, 05:00,  16.9,  99,  20.8,  20.9,  19.3,   0.0,  0.00, 
 06/08/01, 06:00,  16.7,  99,  20.6,  20.8,  19.3,   0.0,  0.00, 
 06/08/01, 07:00,  17.2,  99,  20.5,  20.7,  19.5,   0.0,  0.17, 
 06/08/01, 08:00,  17.5,  99,  20.5,  20.7,  19.3,   0.0,  0.34, 
 06/08/01, 09:00,  18.2,  99,  20.5,  20.6,  19.5,   0.0,  0.84, 
 06/08/01, 10:00,  18.4,  99,  20.6,  20.5,  19.4,   0.0,  0.71, 
 06/08/01, 11:00,  20.9,  92,  20.8,  20.5,  19.5,   0.0,  2.46, 
 06/08/01, 12:00,  22.7,  85,  21.4,  20.5,  19.3,   0.0,  2.40, 
 06/08/01, 13:00,  24.1,  76,  22.1,  20.5,  19.5,   0.0,  3.49, 
 06/08/01, 14:00,  24.2,  74,  22.6,  20.6,  19.4,   0.0,  3.05, 
 06/08/01, 15:00,  23.8,  82,  22.8,  20.7,  19.4,   0.0,  2.17, 
 06/08/01, 16:00,  23.6,  83,  23.0,  20.8,  19.6,   0.0,  2.02, 
 06/08/01, 17:00,  22.4,  89,  23.1,  21.0,  19.5,   0.0,  0.98, 
 06/08/01, 18:00,  21.2,  88,  23.1,  21.1,  19.5,   0.0,  0.63, 
 06/08/01, 19:00,  19.7,  94,  22.9,  21.2,  19.4,   0.0,  0.15, 
 06/08/01, 20:00,  18.8,  99,  22.7,  21.3,  19.4,   0.0,  0.00, 
 06/08/01, 21:00,  18.4,  99,  22.4,  21.3,  19.5,   0.0,  0.00, 
 06/08/01, 22:00,  17.5,  99,  22.1,  21.3,  19.6,   0.0,  0.00, 
 06/08/01, 23:00,  17.4,  99,  21.8,  21.3,  19.6,   0.0,  0.00, 
 06/08/02, 00:00,  17.8,  99,  21.5,  21.3,  19.5,   0.0,  0.00, 
 06/08/02, 01:00,  17.7,  99,  21.3,  21.2,  19.6,   0.0,  0.00, 
 06/08/02, 02:00,  17.3,  99,  21.2,  21.2,  19.6,   0.0,  0.00, 
 06/08/02, 03:00,  17.2,  99,  21.0,  21.1,  19.5,   0.0,  0.00, 
 06/08/02, 04:00,  16.0,  99,  20.8,  21.0,  19.5,   0.0,  0.00, 
 06/08/02, 05:00,  16.0,  99,  20.6,  20.9,  19.5,   0.0,  0.00, 
 06/08/02, 06:00,  15.3,  99,  20.4,  20.9,  19.6,   0.0,  0.06, 
 06/08/02, 07:00,  17.8,  99,  20.2,  20.8,  19.6,   0.0,  0.68, 
 06/08/02, 08:00,  18.7,  99,  20.3,  20.7,  19.5,   0.0,  1.50, 
 06/08/02, 09:00,  20.9,  93,  20.6,  20.6,  19.7,   0.0,  2.19, 
 06/08/02, 10:00,  22.8,  84,  21.2,  20.6,  19.6,   0.0,  2.67, 
 06/08/02, 11:00,  24.8,  79,  21.9,  20.6,  19.7,   0.0,  3.19, 
 06/08/02, 12:00,  25.1,  75,  22.9,  20.6,  19.7,   0.0,  3.20, 
 06/08/02, 13:00,  25.2,  73,  23.9,  20.8,  19.6,   0.0,  3.12, 
 06/08/02, 14:00,  24.1,  80,  24.4,  21.0,  19.5,   0.0,  1.92, 
 06/08/02, 15:00,  24.7,  74,  24.5,  21.2,  19.7,   0.0,  2.19, 
 06/08/02, 16:00,  23.6,  80,  24.5,  21.5,  19.7,   0.0,  1.68, 
 06/08/02, 17:00,  24.3,  85,  24.6,  21.6,  19.7,   0.0,  1.13, 
 06/08/02, 18:00,  22.6,  91,  24.5,  21.8,  19.7,   0.0,  0.89, 
 06/08/02, 19:00,  21.4,  95,  24.3,  22.0,  19.7,   0.0,  0.33, 
 06/08/02, 20:00,  20.0,  99,  24.1,  22.1,  19.8,   0.0,  0.00, 
 06/08/02, 21:00,  19.9,  99,  23.7,  22.1,  19.8,   0.0,  0.00, 
 06/08/02, 22:00,  19.3,  99,  23.4,  22.2,  19.8,   0.0,  0.00, 
 06/08/02, 23:00,  18.1,  99,  23.1,  22.2,  19.8,   0.0,  0.00, 
 06/08/03, 00:00,  18.5,  99,  22.8,  22.1,  19.8,   0.0,  0.00, 
 06/08/03, 01:00,  18.3,  99,  22.5,  22.1,  19.7,   0.0,  0.00, 
 06/08/03, 02:00,  17.9,  99,  22.3,  22.0,  19.7,   0.0,  0.00, 
 06/08/03, 03:00,  17.7,  99,  22.1,  21.8,  19.7,   0.0,  0.00, 
 06/08/03, 04:00,  17.1,  99,  21.8,  21.9,  19.7,   0.0,  0.00, 
 06/08/03, 05:00,  16.2,  99,  21.6,  21.8,  19.7,   0.0,  0.00, 
 06/08/03, 06:00,  16.9,  99,  21.3,  21.7,  19.9,   0.0,  0.05, 
 06/08/03, 07:00,  18.6,  99,  21.1,  21.6,  19.9,   0.0,  0.61, 
 06/08/03, 08:00,  19.4,  99,  21.1,  21.5,  19.9,   0.0,  1.39, 
 06/08/03, 09:00,  21.6,  94,  21.4,  21.4,  20.0,   0.0,  1.90, 
 06/08/03, 10:00,  22.2,  92,  21.8,  21.3,  20.0,   0.0,  2.25, 
 06/08/03, 11:00,  22.9,  89,  22.4,  21.3,  19.9,   0.0,  2.03, 
 06/08/03, 12:00,  24.6,  80,  22.9,  21.3,  20.0,   0.0,  2.86, 
 06/08/03, 13:00,  24.8,  79,  23.7,  21.4,  20.1,   0.0,  2.17, 
 06/08/03, 14:00,  24.6,  79,  24.0,  21.5,  20.1,   0.0,  2.00, 
 06/08/03, 15:00,  25.1,  78,  24.2,  21.7,  19.9,   0.0,  1.98, 
 06/08/03, 16:00,  24.0,  84,  24.2,  21.8,  20.0,   0.0,  1.30, 
 06/08/03, 17:00,  23.7,  86,  24.3,  21.9,  20.0,   0.0,  1.41, 
 06/08/03, 18:00,  23.1,  92,  24.4,  22.1,  20.1,   0.0,  0.77, 
 06/08/03, 19:00,  21.4,  99,  24.2,  22.2,  20.1,   0.0,  0.15, 
 06/08/03, 20:00,  20.1,  99,  23.9,  22.2,  20.1,   0.0,  0.00, 
 06/08/03, 21:00,  19.8,  99,  23.6,  22.3,  20.1,   0.0,  0.00, 
 06/08/03, 22:00,  19.8,  99,  23.3,  22.3,  20.2,   0.0,  0.00, 
 06/08/03, 23:00,  19.4,  99,  23.1,  22.3,  20.2,   0.0,  0.00, 
 06/08/04, 00:00,  19.5,  99,  22.9,  22.3,  20.2,   0.0,  0.00, 
 06/08/04, 01:00,  19.2,  99,  22.7,  22.2,  20.0,   0.0,  0.00, 
 06/08/04, 02:00,  18.9,  99,  22.5,  22.2,  20.0,   0.0,  0.00, 
 06/08/04, 03:00,  17.9,  99,  22.3,  22.1,  20.1,   0.0,  0.00, 
 06/08/04, 04:00,  18.0,  99,  22.1,  22.0,  20.1,   0.0,  0.00, 
 06/08/04, 05:00,  17.7,  99,  21.9,  22.0,  20.1,   0.0,  0.00, 
 06/08/04, 06:00,  18.2,  97,  21.7,  21.9,  20.1,   0.0,  0.05, 
 06/08/04, 07:00,  20.5,  94,  21.5,  21.8,  20.1,   0.0,  0.65, 
 06/08/04, 08:00,  19.5,  99,  21.6,  21.7,  20.2,   0.0,  1.51, 
 06/08/04, 09:00,  21.4,  97,  21.8,  21.6,  20.2,   0.0,  1.72, 
 06/08/04, 10:00,  23.2,  90,  22.3,  21.6,  20.3,   0.0,  2.56, 
 06/08/04, 11:00,  24.5,  85,  22.9,  21.6,  20.3,   0.0,  3.02, 
 06/08/04, 12:00,  24.8,  83,  23.8,  21.6,  20.3,   0.0,  2.51, 
 06/08/04, 13:00,  25.8,  74,  24.5,  21.7,  20.3,   0.0,  2.50, 
 06/08/04, 14:00,  26.5,  69,  24.7,  21.9,  20.4,   0.0,  3.23, 
 06/08/04, 15:00,  26.3,  64,  24.7,  22.1,  20.2,   0.0,  2.78, 
 06/08/04, 16:00,  26.0,  75,  24.6,  22.2,  20.3,   0.0,  2.23, 
 06/08/04, 17:00,  23.8,  85,  24.8,  22.4,  20.4,   0.0,  1.53, 
 06/08/04, 18:00,  22.7,  87,  24.7,  22.5,  20.4,   0.0,  0.70, 
 06/08/04, 19:00,  21.0,  97,  24.5,  22.6,  20.4,   0.0,  0.16, 
 06/08/04, 20:00,  19.5,  99,  24.2,  22.6,  20.4,   0.0,  0.00, 
 06/08/04, 21:00,  18.5,  99,  23.8,  22.7,  20.4,   0.0,  0.00, 
 06/08/04, 22:00,  17.8,  99,  23.4,  22.7,  20.3,   0.0,  0.00, 
 06/08/04, 23:00,  18.4,  99,  23.1,  22.6,  20.1,   0.0,  0.00, 
 06/08/05, 00:00,  17.5,  99,  22.7,  22.6,  20.4,   0.0,  0.00, 
 06/08/05, 01:00,  17.5,  99,  22.4,  22.5,  20.4,   0.0,  0.00, 
 06/08/05, 02:00,  17.3,  99,  22.1,  22.4,  20.4,   0.0,  0.00, 
 06/08/05, 03:00,  16.8,  99,  21.8,  22.3,  20.4,   0.0,  0.00, 
 06/08/05, 04:00,  16.0,  99,  21.6,  22.2,  20.4,   0.0,  0.00, 
 06/08/05, 05:00,  18.5,  85,  21.3,  22.1,  20.5,   0.0,  0.00, 
 06/08/05, 06:00,  15.3,  88,  21.0,  21.9,  20.4,   0.0,  0.02, 
 06/08/05, 07:00,  18.9,  78,  20.8,  21.8,  20.5,   0.0,  0.80, 
 06/08/05, 08:00,  21.9,  70,  20.9,  21.7,  20.5,   0.0,  1.58, 
 06/08/05, 09:00,  22.8,  78,  21.3,  21.6,  20.5,   0.0,  2.30, 
 06/08/05, 10:00,  24.1,  79,  21.9,  21.5,  20.5,   0.0,  2.86, 
 06/08/05, 11:00,  25.4,  73,  22.7,  21.5,  20.5,   0.0,  3.25, 
 06/08/05, 12:00,  26.8,  56,  23.8,  21.5,  20.6,   0.0,  3.49, 
 06/08/05, 13:00,  27.5,  48,  24.9,  21.7,  20.6,   0.0,  3.49, 
 06/08/05, 14:00,  27.1,  40,  25.0,  21.9,  20.6,   0.0,  3.30, 
 06/08/05, 15:00,  27.4,  41,  24.9,  22.1,  20.6,   0.0,  2.89, 
 06/08/05, 16:00,  26.0,  54,  24.6,  22.3,  20.6,   0.0,  2.30, 
 06/08/05, 17:00,  24.1,  63,  24.7,  22.5,  20.6,   0.0,  1.64, 
 06/08/05, 18:00,  23.2,  70,  24.7,  22.6,  20.6,   0.0,  0.88, 
 06/08/05, 19:00,  20.0,  89,  24.3,  22.7,  20.6,   0.0,  0.19, 
 06/08/05, 20:00,  18.5,  98,  23.9,  22.7,  20.6,   0.0,  0.00, 
 06/08/05, 21:00,  18.1,  99,  23.5,  22.7,  20.6,   0.0,  0.00, 
 06/08/05, 22:00,  19.0,  91,  23.1,  22.7,  20.6,   0.0,  0.00, 
 06/08/05, 23:00,  18.1,  99,  22.9,  22.6,  20.6,   0.0,  0.00, 
 06/08/06, 00:00,  17.8,  98,  22.5,  22.6,  20.5,   0.0,  0.00, 
 06/08/06, 01:00,  17.1,  99,  22.2,  22.5,  20.6,   0.0,  0.00, 
 06/08/06, 02:00,  17.2,  97,  21.9,  22.4,  20.6,   0.0,  0.00, 
 06/08/06, 03:00,  16.9,  95,  21.7,  22.3,  20.6,   0.0,  0.00, 
 06/08/06, 04:00,  16.5,  99,  21.4,  22.2,  20.5,   0.0,  0.00, 
 06/08/06, 05:00,  17.1,  99,  21.2,  22.0,  20.6,   0.0,  0.00, 
 06/08/06, 06:00,  17.2,  99,  21.0,  21.9,  20.5,   0.0,  0.07, 
 06/08/06, 07:00,  20.0,  97,  20.9,  21.8,  20.5,   0.0,  0.60, 
 06/08/06, 08:00,  22.1,  82,  20.9,  21.7,  20.5,   0.0,  1.30, 
 06/08/06, 09:00,  22.5,  87,  21.4,  21.6,  20.5,   0.0,  2.06, 
 06/08/06, 10:00,  23.7,  82,  21.9,  21.5,  20.6,   0.0,  2.62, 
 06/08/06, 11:00,  26.4,  72,  22.7,  21.5,  20.7,   0.0,  3.20, 
 06/08/06, 12:00,  26.5,  63,  23.6,  21.6,  20.7,   0.0,  3.44, 
 06/08/06, 13:00,  27.7,  55,  24.8,  21.7,  20.7,   0.0,  3.28, 
 06/08/06, 14:00,  27.3,  53,  25.0,  21.9,  20.7,   0.0,  2.96, 
 06/08/06, 15:00,  27.6,  57,  24.9,  22.1,  20.7,   0.0,  2.35, 
 06/08/06, 16:00,  26.5,  61,  24.9,  22.3,  20.7,   0.0,  1.86, 
 06/08/06, 17:00,  25.5,  77,  25.0,  22.5,  20.7,   0.0,  0.89, 
 06/08/06, 18:00,  23.9,  85,  24.9,  22.6,  20.7,   0.0,  0.52, 
 06/08/06, 19:00,  22.4,  88,  24.8,  22.8,  20.7,   0.0,  0.00, 
 06/08/06, 20:00,  21.3,  92,  24.4,  22.8,  20.7,   0.0,  0.00, 
 06/08/06, 21:00,  20.4,  98,  24.1,  22.9,  20.7,   0.0,  0.00, 
 06/08/06, 22:00,  20.5,  99,  23.9,  22.9,  20.7,   0.0,  0.00, 
 06/08/06, 23:00,  19.6,  99,  23.5,  22.9,  20.8,   0.0,  0.00, 
 06/08/07, 00:00,  19.9,  99,  23.3,  22.8,  20.8,   0.0,  0.00, 
 06/08/07, 01:00,  19.4,  99,  23.0,  22.8,  20.7,   0.0,  0.00, 
 06/08/07, 02:00,  19.1,  99,  22.9,  22.7,  20.7,   0.0,  0.00, 
 06/08/07, 03:00,  18.6,  99,  22.6,  22.6,  20.7,   0.0,  0.00, 
 06/08/07, 04:00,  17.5,  99,  22.4,  22.6,  20.7,   0.0,  0.00, 
 06/08/07, 05:00,  17.5,  99,  22.2,  22.5,  20.8,   0.0,  0.00, 
 06/08/07, 06:00,  17.5,  99,  22.0,  22.4,  20.7,   0.0,  0.05, 
 06/08/07, 07:00,  20.7,  99,  21.8,  22.3,  20.7,   0.0,  0.58, 
 06/08/07, 08:00,  21.5,  93,  21.8,  22.2,  20.9,   0.0,  1.29, 
 06/08/07, 09:00,  22.6,  91,  22.2,  22.1,  20.7,   0.0,  2.04, 
 06/08/07, 10:00,  24.2,  90,  22.8,  22.1,  20.9,   0.0,  2.56, 
 06/08/07, 11:00,  24.4,  84,  23.3,  22.0,  20.9,   0.0,  2.57, 
 06/08/07, 12:00,  27.0,  74,  24.1,  22.1,  20.9,   0.0,  2.96, 
 06/08/07, 13:00,  24.8,  74,  24.7,  22.2,  20.7,   0.0,  1.42, 
 06/08/07, 14:00,  22.9,  79,  24.9,  22.4,  20.8,   0.0,  1.46, 
 06/08/07, 15:00,  19.9,  99,  24.9,  22.5,  20.9,   0.0,  0.24, 
 06/08/07, 16:00,  17.1,  99,  24.6,  22.7,  20.8,   0.0,  0.13, 
 06/08/07, 17:00,  19.0,  99,  24.2,  22.8,  20.8,   0.0,  0.22, 
 06/08/07, 18:00,  19.4,  99,  23.9,  22.8,  20.8,   0.0,  0.16, 
 06/08/07, 19:00,  19.5,  99,  23.6,  22.9,  20.8,   0.0,  0.10, 
 06/08/07, 20:00,  19.6,  99,  23.4,  22.8,  20.8,   0.0,  0.00, 
 06/08/07, 21:00,  19.5,  99,  23.2,  22.8,  20.8,   0.0,  0.00, 
 06/08/07, 22:00,  19.2,  99,  23.0,  22.7,  20.9,   0.0,  0.00, 
 06/08/07, 23:00,  19.4,  99,  22.8,  22.7,  20.9,   0.0,  0.00, 
 06/08/08, 00:00,  18.0,  99,  22.5,  22.6,  20.8,   0.0,  0.00, 
 06/08/08, 01:00,  18.2,  99,  22.3,  22.5,  20.9,   0.0,  0.00, 
 06/08/08, 02:00,  17.6,  99,  22.0,  22.5,  20.9,   0.0,  0.00, 
 06/08/08, 03:00,  19.2,  92,  21.7,  22.4,  20.8,   0.0,  0.00, 
 06/08/08, 04:00,  15.9,  99,  21.5,  22.3,  20.8,   0.0,  0.00, 
 06/08/08, 05:00,  15.4,  99,  21.2,  22.2,  20.8,   0.0,  0.00, 
 06/08/08, 06:00,  15.9,  99,  21.0,  22.0,  20.8,   0.0,  0.05, 
 06/08/08, 07:00,  18.6,  99,  20.8,  21.9,  20.9,   0.0,  0.68, 
 06/08/08, 08:00,  20.4,  92,  20.9,  21.8,  20.9,   0.0,  1.47, 
 06/08/08, 09:00,  21.7,  90,  21.4,  21.7,  20.9,   0.0,  2.18, 
 06/08/08, 10:00,  21.0,  93,  22.0,  21.6,  20.9,   0.0,  1.52, 
 06/08/08, 11:00,  21.9,  88,  22.4,  21.6,  20.9,   0.0,  1.84, 
 06/08/08, 12:00,  23.4,  84,  22.9,  21.7,  20.9,   0.0,  2.64, 
 06/08/08, 13:00,  24.5,  82,  23.6,  21.7,  20.9,   0.0,  2.97, 
 06/08/08, 14:00,  25.8,  76,  23.9,  21.8,  21.0,   0.0,  2.43, 
 06/08/08, 15:00,  25.7,  73,  24.0,  22.0,  20.9,   0.0,  2.34, 
 06/08/08, 16:00,  26.0,  64,  24.0,  22.1,  20.9,   0.0,  2.48, 
 06/08/08, 17:00,  24.5,  60,  24.3,  22.2,  20.8,   0.0,  1.38, 
 06/08/08, 18:00,  23.1,  69,  24.2,  22.4,  20.9,   0.0,  0.39, 
 06/08/08, 19:00,  22.4,  69,  23.9,  22.5,  20.9,   0.0,  0.11, 
 06/08/08, 20:00,  21.8,  70,  23.6,  22.5,  20.8,   0.0,  0.00, 
 06/08/08, 21:00,  21.6,  73,  23.2,  22.6,  20.8,   0.0,  0.00, 
 06/08/08, 22:00,  21.6,  70,  22.9,  22.5,  20.7,   0.0,  0.00, 
 06/08/08, 23:00,  21.5,  69,  22.6,  22.5,  20.9,   0.0,  0.00, 
 06/08/09, 00:00,  19.1,  88,  22.3,  22.4,  20.9,   0.0,  0.00, 
 06/08/09, 01:00,  18.1,  95,  22.1,  22.4,  20.9,   0.0,  0.00, 
 06/08/09, 02:00,  17.3,  97,  21.8,  22.3,  20.8,   0.0,  0.00, 
 06/08/09, 03:00,  17.4,  96,  21.6,  22.1,  20.8,   0.0,  0.00, 
 06/08/09, 04:00,  18.7,  95,  21.4,  22.1,  20.8,   0.0,  0.00, 
 06/08/09, 05:00,  18.0,  97,  21.3,  22.0,  20.8,   0.0,  0.00, 
 06/08/09, 06:00,  18.7,  91,  21.2,  21.9,  20.9,   0.0,  0.00, 
 06/08/09, 07:00,  18.4,  99,  21.1,  21.8,  20.9,   0.0,  0.34, 
 06/08/09, 08:00,  19.8,  96,  21.1,  21.7,  20.9,   0.0,  1.34, 
 06/08/09, 09:00,  22.1,  87,  21.5,  21.6,  20.9,   0.0,  2.24, 
 06/08/09, 10:00,  21.7,  93,  22.0,  21.6,  20.9,   0.0,  1.56, 
 06/08/09, 11:00,  22.7,  92,  22.4,  21.6,  20.9,   0.0,  1.95, 
 06/08/09, 12:00,  23.6,  88,  23.0,  21.6,  20.8,   0.0,  2.33, 
 06/08/09, 13:00,  23.1,  91,  23.5,  21.7,  20.9,   0.0,  1.78, 
 06/08/09, 14:00,  24.1,  88,  23.8,  21.8,  20.9,   0.0,  2.29, 
 06/08/09, 15:00,  24.5,  81,  24.0,  21.9,  20.9,   0.0,  2.16, 
 06/08/09, 16:00,  23.7,  88,  24.1,  22.1,  20.8,   0.0,  1.09, 
 06/08/09, 17:00,  22.7,  92,  24.1,  22.2,  20.7,   0.0,  0.95, 
 06/08/09, 18:00,  21.1,  95,  24.0,  22.3,  20.8,   0.0,  0.19, 
 06/08/09, 19:00,  20.3,  97,  23.8,  22.4,  20.8,   0.0,  0.01, 
 06/08/09, 20:00,  19.8,  98,  23.5,  22.5,  20.8,   0.0,  0.00, 
 06/08/09, 21:00,  19.4,  99,  23.2,  22.5,  20.8,   0.0,  0.00, 
 06/08/09, 22:00,  18.6,  99,  23.0,  22.5,  20.7,   0.0,  0.00, 
 06/08/09, 23:00,  17.7,  99,  22.7,  22.5,  20.9,   0.0,  0.00, 
 06/08/10, 00:00,  17.9,  99,  22.4,  22.4,  20.9,   0.0,  0.00, 
 06/08/10, 01:00,  17.2,  99,  22.1,  22.4,  21.0,   0.0,  0.00, 
 06/08/10, 02:00,  17.1,  99,  21.8,  22.3,  20.9,   0.0,  0.00, 
 06/08/10, 03:00,  18.1,  89,  21.5,  22.2,  20.9,   0.0,  0.00, 
 06/08/10, 04:00,  15.0,  99,  21.3,  22.1,  20.8,   0.0,  0.00, 
 06/08/10, 05:00,  14.7,  99,  21.0,  22.0,  20.8,   0.0,  0.00, 
 06/08/10, 06:00,  14.7,  99,  20.7,  21.9,  20.8,   0.0,  0.03, 
 06/08/10, 07:00,  18.6,  93,  20.5,  21.8,  20.9,   0.0,  0.74, 
 06/08/10, 08:00,  18.8,  97,  20.6,  21.6,  20.9,   0.0,  1.49, 
 06/08/10, 09:00,  20.9,  90,  21.1,  21.5,  20.9,   0.0,  2.22, 
 06/08/10, 10:00,  22.1,  85,  21.6,  21.4,  20.9,   0.0,  2.79, 
 06/08/10, 11:00,  23.8,  76,  22.5,  21.4,  20.8,   0.0,  3.23, 
 06/08/10, 12:00,  25.2,  65,  23.6,  21.5,  20.8,   0.0,  3.44, 
 06/08/10, 13:00,  26.4,  59,  24.6,  21.6,  20.9,   0.0,  3.32, 
 06/08/10, 14:00,  26.5,  53,  24.7,  21.8,  21.0,   0.0,  3.11, 
 06/08/10, 15:00,  25.1,  62,  24.5,  22.1,  21.0,   0.0,  2.76, 
 06/08/10, 16:00,  24.5,  71,  24.3,  22.3,  20.7,   0.0,  2.18, 
 06/08/10, 17:00,  23.6,  73,  24.5,  22.4,  20.8,   0.0,  1.57, 
 06/08/10, 18:00,  22.3,  75,  24.3,  22.5,  20.8,   0.0,  0.57, 
 06/08/10, 19:00,  20.8,  87,  24.0,  22.6,  20.9,   0.0,  0.14, 
 06/08/10, 20:00,  17.8,  99,  23.6,  22.7,  20.8,   0.0,  0.00, 
 06/08/10, 21:00,  17.8,  99,  23.2,  22.7,  20.9,   0.0,  0.00, 
 06/08/10, 22:00,  17.5,  99,  22.9,  22.7,  20.9,   0.0,  0.00, 
 06/08/10, 23:00,  19.1,  97,  22.5,  22.6,  20.8,   0.0,  0.00, 
 06/08/11, 00:00,  16.9,  99,  22.3,  22.6,  20.8,   0.0,  0.00, 
 06/08/11, 01:00,  16.6,  97,  22.0,  22.5,  20.8,   0.0,  0.00, 
 06/08/11, 02:00,  16.1,  86,  21.7,  22.4,  20.8,   0.0,  0.00, 
 06/08/11, 03:00,  16.7,  70,  21.4,  22.3,  20.8,   0.0,  0.00, 
 06/08/11, 04:00,  16.2,  71,  21.1,  22.1,  20.8,   0.0,  0.00, 
 06/08/11, 05:00,  15.8,  70,  20.8,  22.0,  20.9,   0.0,  0.00, 
 06/08/11, 06:00,  15.7,  72,  20.5,  21.9,  21.0,   0.0,  0.02, 
 06/08/11, 07:00,  17.8,  79,  20.3,  21.8,  21.0,   0.0,  0.70, 
 06/08/11, 08:00,  23.2,  47,  20.4,  21.6,  21.0,   0.0,  1.50, 
 06/08/11, 09:00,  24.1,  42,  20.9,  21.5,  21.0,   0.0,  2.22, 
 06/08/11, 10:00,  25.0,  55,  21.4,  21.4,  21.0,   0.0,  2.80, 
 06/08/11, 11:00,  25.3,  55,  22.3,  21.4,  21.0,   0.0,  3.20, 
 06/08/11, 12:00,  26.3,  54,  23.5,  21.4,  20.9,   0.0,  3.46, 
 06/08/11, 13:00,  26.6,  53,  24.5,  21.6,  21.0,   0.0,  3.18, 
 06/08/11, 14:00,  27.3,  51,  24.7,  21.8,  21.0,   0.0,  3.01, 
 06/08/11, 15:00,  26.8,  61,  24.5,  22.0,  20.8,   0.0,  2.50, 
 06/08/11, 16:00,  24.5,  71,  24.4,  22.2,  20.8,   0.0,  1.11, 
 06/08/11, 17:00,  23.5,  76,  24.3,  22.4,  20.8,   0.0,  1.19, 
 06/08/11, 18:00,  22.5,  80,  24.1,  22.5,  21.0,   0.0,  0.77, 
 06/08/11, 19:00,  20.5,  87,  23.8,  22.6,  20.9,   0.0,  0.12, 
 06/08/11, 20:00,  20.0,  90,  23.5,  22.7,  20.9,   0.0,  0.00, 
 06/08/11, 21:00,  19.9,  90,  23.2,  22.7,  20.9,   0.0,  0.00, 
 06/08/11, 22:00,  20.2,  83,  22.9,  22.6,  20.8,   0.0,  0.00, 
 06/08/11, 23:00,  20.9,  65,  22.6,  22.6,  21.0,   0.0,  0.00, 
 06/08/12, 00:00,  18.0,  74,  22.4,  22.5,  20.9,   0.0,  0.00, 
 06/08/12, 01:00,  17.1,  77,  22.1,  22.5,  20.8,   0.0,  0.00, 
 06/08/12, 02:00,  18.1,  66,  21.8,  22.4,  20.9,   0.0,  0.00, 
 06/08/12, 03:00,  17.1,  73,  21.5,  22.3,  21.0,   0.0,  0.00, 
 06/08/12, 04:00,  18.2,  81,  21.3,  22.2,  21.0,   0.0,  0.00, 
 06/08/12, 05:00,  18.4,  87,  21.1,  22.1,  20.9,   0.0,  0.00, 
 06/08/12, 06:00,  17.6,  93,  21.0,  22.0,  20.8,   0.0,  0.00, 
 06/08/12, 07:00,  20.3,  84,  20.9,  21.9,  21.0,   0.0,  0.50, 
 06/08/12, 08:00,  21.5,  75,  21.0,  21.8,  21.0,   0.0,  1.28, 
 06/08/12, 09:00,  21.8,  79,  21.4,  21.7,  21.0,   0.0,  1.84, 
 06/08/12, 10:00,  23.3,  75,  21.8,  21.6,  20.8,   0.0,  2.42, 
 06/08/12, 11:00,  24.2,  72,  22.5,  21.6,  21.0,   0.0,  2.21, 
 06/08/12, 12:00,  22.5,  78,  23.1,  21.6,  21.0,   0.0,  1.83, 
 06/08/12, 13:00,  17.4,  99,  23.3,  21.7,  21.0,   0.0,  0.05, 
 06/08/12, 14:00,  17.6,  99,  23.0,  21.8,  21.0,   0.0,  0.62, 
 06/08/12, 15:00,  20.8,  95,  22.7,  21.9,  21.0,   0.0,  2.25, 
 06/08/12, 16:00,  21.9,  90,  22.9,  22.0,  21.0,   0.0,  2.03, 
 06/08/12, 17:00,  20.3,  99,  23.1,  22.0,  21.0,   0.0,  1.02, 
 06/08/12, 18:00,  19.2,  98,  23.0,  22.1,  21.0,   0.0,  0.35, 
 06/08/12, 19:00,  17.8,  99,  22.8,  22.1,  20.9,   0.0,  0.01, 
 06/08/12, 20:00,  17.4,  92,  22.6,  22.1,  20.9,   0.0,  0.00, 
 06/08/12, 21:00,  17.7,  90,  22.2,  22.1,  20.8,   0.0,  0.00, 
 06/08/12, 22:00,  16.9,  93,  21.9,  22.1,  20.9,   0.0,  0.00, 
 06/08/12, 23:00,  16.4,  97,  21.6,  22.0,  20.8,   0.0,  0.00, 
 06/08/13, 00:00,  16.8,  99,  21.3,  21.9,  20.9,   0.0,  0.00, 
 06/08/13, 01:00,  16.1,  99,  21.1,  21.8,  20.9,   0.0,  0.00, 
 06/08/13, 02:00,  15.4,  99,  20.9,  21.8,  20.9,   0.0,  0.00, 
 06/08/13, 03:00,  15.3,  99,  20.6,  21.7,  20.8,   0.0,  0.00, 
 06/08/13, 04:00,  15.7,  97,  20.4,  21.5,  20.8,   0.0,  0.00, 
 06/08/13, 05:00,  17.7,  87,  20.2,  21.4,  20.8,   0.0,  0.00, 
 06/08/13, 06:00,  17.1,  95,  20.0,  21.3,  20.8,   0.0,  0.02, 
 06/08/13, 07:00,  18.0,  98,  19.9,  21.2,  20.9,   0.0,  0.33, 
 06/08/13, 08:00,  20.8,  90,  20.1,  21.1,  20.9,   0.0,  1.35, 
 06/08/13, 09:00,  21.3,  85,  20.6,  21.0,  20.8,   0.0,  2.20, 
 06/08/13, 10:00,  21.6,  90,  21.3,  21.0,  20.9,   0.0,  2.59, 
 06/08/13, 11:00,  24.4,  82,  22.1,  21.0,  20.9,   0.0,  2.23, 
 06/08/13, 12:00,  25.1,  74,  23.0,  21.1,  21.0,   0.0,  3.39, 
 06/08/13, 13:00,  25.0,  71,  24.1,  21.2,  20.8,   0.0,  3.40, 
 06/08/13, 14:00,  25.5,  73,  24.4,  21.4,  20.8,   0.0,  3.23, 
 06/08/13, 15:00,  26.0,  68,  24.4,  21.7,  20.9,   0.0,  2.39, 
 06/08/13, 16:00,  24.3,  78,  24.3,  21.9,  20.9,   0.0,  2.10, 
 06/08/13, 17:00,  22.0,  88,  24.4,  22.1,  20.9,   0.0,  0.79, 
 06/08/13, 18:00,  21.8,  85,  24.2,  22.2,  20.9,   0.0,  0.22, 
 06/08/13, 19:00,  21.1,  90,  23.9,  22.3,  20.9,   0.0,  0.06, 
 06/08/13, 20:00,  19.2,  99,  23.6,  22.4,  20.8,   0.0,  0.00, 
 06/08/13, 21:00,  19.1,  99,  23.3,  22.5,  20.9,   0.0,  0.00, 
 06/08/13, 22:00,  18.9,  99,  23.1,  22.5,  20.8,   0.0,  0.00, 
 06/08/13, 23:00,  18.5,  99,  22.9,  22.4,  20.9,   0.0,  0.00, 
 06/08/14, 00:00,  18.2,  99,  22.5,  22.4,  20.7,   0.0,  0.00, 
 06/08/14, 01:00,  17.8,  99,  22.3,  22.4,  20.8,   0.0,  0.00, 
 06/08/14, 02:00,  17.7,  99,  22.0,  22.3,  20.9,   0.0,  0.00, 
 06/08/14, 03:00,  17.2,  99,  21.8,  22.2,  20.8,   0.0,  0.00, 
 06/08/14, 04:00,  16.3,  99,  21.6,  22.1,  20.8,   0.0,  0.00, 
 06/08/14, 05:00,  17.1,  99,  21.3,  22.0,  20.8,   0.0,  0.00, 
 06/08/14, 06:00,  16.5,  99,  21.1,  21.9,  20.8,   0.0,  0.04, 
 06/08/14, 07:00,  18.4,  99,  21.0,  21.8,  20.8,   0.0,  0.55, 
 06/08/14, 08:00,  19.0,  94,  21.1,  21.7,  20.9,   0.0,  1.31, 
 06/08/14, 09:00,  21.0,  92,  21.4,  21.6,  20.9,   0.0,  1.87, 
 06/08/14, 10:00,  22.3,  91,  21.8,  21.6,  21.0,   0.0,  2.47, 
 06/08/14, 11:00,  22.9,  86,  22.5,  21.6,  21.0,   0.0,  2.02, 
 06/08/14, 12:00,  23.9,  80,  23.3,  21.6,  21.0,   0.0,  2.51, 
 06/08/14, 13:00,  26.3,  71,  23.8,  21.7,  21.0,   0.0,  2.82, 
 06/08/14, 14:00,  26.0,  69,  24.1,  21.9,  21.0,   0.0,  3.19, 
 06/08/14, 15:00,  25.1,  70,  24.2,  22.0,  21.0,   0.0,  2.03, 
 06/08/14, 16:00,  24.9,  71,  24.4,  22.2,  21.0,   0.0,  1.57, 
 06/08/14, 17:00,  24.4,  77,  24.5,  22.3,  20.8,   0.0,  1.58, 
 06/08/14, 18:00,  22.7,  90,  24.4,  22.5,  21.0,   0.0,  0.36, 
 06/08/14, 19:00,  21.7,  94,  24.2,  22.6,  21.0,   0.0,  0.08, 
 06/08/14, 20:00,  19.4,  99,  24.0,  22.6,  21.0,   0.0,  0.00, 
 06/08/14, 21:00,  19.4,  99,  23.5,  22.7,  21.0,   0.0,  0.00, 
 06/08/14, 22:00,  18.6,  99,  23.2,  22.7,  20.8,   0.0,  0.00, 
 06/08/14, 23:00,  18.6,  99,  22.9,  22.7,  20.9,   0.0,  0.00, 
 06/08/15, 00:00,  18.6,  99,  22.6,  22.6,  20.8,   0.0,  0.00, 
 06/08/15, 01:00,  18.3,  99,  22.4,  22.5,  21.0,   0.0,  0.00, 
 06/08/15, 02:00,  17.6,  99,  22.2,  22.5,  21.0,   0.0,  0.00, 
 06/08/15, 03:00,  17.2,  99,  21.9,  22.4,  21.0,   0.0,  0.00, 
 06/08/15, 04:00,  16.9,  99,  21.7,  22.3,  21.1,   0.0,  0.00, 
 06/08/15, 05:00,  16.4,  99,  21.4,  22.2,  21.1,   0.0,  0.00, 
 06/08/15, 06:00,  18.6,  88,  21.2,  22.1,  21.1,   0.0,  0.02, 
 06/08/15, 07:00,  18.3,  99,  21.0,  22.0,  21.0,   0.0,  0.66, 
 06/08/15, 08:00,  20.1,  98,  21.1,  21.9,  21.0,   0.0,  1.42, 
 06/08/15, 09:00,  21.0,  97,  21.6,  21.8,  20.9,   0.0,  2.03, 
 06/08/15, 10:00,  22.9,  90,  22.1,  21.7,  21.1,   0.0,  2.69, 
 06/08/15, 11:00,  24.2,  83,  22.9,  21.7,  21.1,   0.0,  3.17, 
 06/08/15, 12:00,  26.0,  78,  24.1,  21.8,  21.1,   0.0,  3.40, 
 06/08/15, 13:00,  26.4,  73,  25.2,  21.9,  21.2,   0.0,  3.31, 
 06/08/15, 14:00,  27.5,  71,  25.4,  22.1,  21.1,   0.0,  3.31, 
 06/08/15, 15:00,  27.3,  74,  25.4,  22.4,  21.1,   0.0,  2.76, 
 06/08/15, 16:00,  26.0,  78,  25.4,  22.6,  21.1,   0.0,  1.61, 
 06/08/15, 17:00,  25.8,  72,  25.5,  22.9,  21.2,   0.0,  1.64, 
 06/08/15, 18:00,  24.3,  85,  25.3,  23.0,  21.2,   0.0,  0.71, 
 06/08/15, 19:00,  22.9,  93,  25.1,  23.1,  21.1,   0.0,  0.02, 
 06/08/15, 20:00,  21.8,  94,  24.9,  23.2,  21.2,   0.0,  0.00, 
 06/08/15, 21:00,  19.9,  96,  24.5,  23.2,  21.0,   0.0,  0.00, 
 06/08/15, 22:00,  19.0,  99,  24.1,  23.3,  21.1,   0.0,  0.00, 
 06/08/15, 23:00,  18.7,  99,  23.8,  23.2,  21.1,   0.0,  0.00, 
 06/08/16, 00:00,  18.5,  99,  23.5,  23.2,  21.2,   0.0,  0.00, 
 06/08/16, 01:00,  18.3,  99,  23.1,  23.1,  21.1,   0.0,  0.00, 